User: anonymous   Login
Location: Unspecified
(0.0000°N, 0.0000°E)
Time: 17:07:31
(UTC+00:00)
Language:

TATIANA 2 - Orbit

View from above orbital plane
View from above orbital plane
View from above satellite
View from above satellite

Ground track
Ground track

The orbit data is extracted from the following two-line orbital elements,

1 35868U 09049D   17264.89826547 +.00000009 +00000-0 +22264-4 0  9990
2 35868 098.4125 283.8212 0003899 189.9219 170.1883 14.22785812415902
Epoch (UTC): 21 September 2017 21:33:30
Eccentricity: 0.0003899
inclination: 98.4125°
perigee height: 813 km
apogee height: 819 km
right ascension of ascending node: 283.8212°
argument of perigee: 189.9219°
revolutions per day: 14.22785812
mean anomaly at epoch: 170.1883°
orbit number at epoch: 41590

The dashed part of the orbit path shows where the satellite is in the earth's shadow,  

DLR